DW0108 Weather Reports


Display with metric or nautical units.
time (UTC)temp
F
wind
direction
speed
MPH
gust
MPH
rain 1hr
in
rain 24hr
in
rain mn
in
humidity
%
barometer
mb
20260503235808 79 167 3.0 8.0 0.00 0.00 0.00 35 1015.2
20260503234821 79 191 2.0 8.0 0.00 0.00 0.00 36 1015.5
20260503233817 79 153 3.0 6.0 0.00 0.00 0.00 36 1015.5
20260503232809 79 159 3.0 8.0 0.00 0.00 0.00 35 1015.5
20260503231819 80 168 4.0 10.0 0.00 0.00 0.00 36 1015.9
20260503225844 80 181 3.0 5.0 0.00 0.00 0.00 34 1016.2
20260503224806 81 162 4.0 7.0 0.00 0.00 0.00 33 1016.2
20260503223805 81 153 3.0 8.0 0.00 0.00 0.00 34 1016.2
20260503222831 81 156 2.0 6.0 0.00 0.00 0.00 33 1016.2
20260503221824 80 155 3.0 7.0 0.00 0.00 0.00 35 1016.2
20260503220808 80 157 3.0 8.0 0.00 0.00 0.00 35 1016.2
20260503215814 81 167 4.0 9.0 0.00 0.00 0.00 34 1016.5
20260503214826 81 157 3.0 6.0 0.00 0.00 0.00 32 1016.5
20260503213836 81 167 3.0 7.0 0.00 0.00 0.00 32 1016.9
20260503212826 81 171 3.0 9.0 0.00 0.00 0.00 33 1016.9
20260503211840 82 190 3.0 8.0 0.00 0.00 0.00 33 1017.2
20260503205813 81 176 2.0 5.0 0.00 0.00 0.00 33 1017.2
20260503204806 82 187 2.0 7.0 0.00 0.00 0.00 33 1017.9
20260503203832 82 155 4.0 7.0 0.00 0.00 0.00 34 1017.9
20260503202808 81 156 3.0 8.0 0.00 0.00 0.00 33 1017.9
20260503201824 81 200 2.0 6.0 0.00 0.00 0.00 32 1018.2
20260503200821 81 196 2.0 5.0 0.00 0.00 0.00 33 1018.2
20260503195840 82 184 2.0 7.0 0.00 0.00 0.00 33 1018.6
20260503194840 81 155 4.0 6.0 0.00 0.00 0.00 34 1018.6
20260503193821 81 209 3.0 8.0 0.00 0.00 0.00 33 1018.6
20260503192827 81 163 2.0 7.0 0.00 0.00 0.00 33 1018.9
20260503191825 81 222 2.0 5.0 0.00 0.00 0.00 34 1018.9
20260503190811 81 175 3.0 8.0 0.00 0.00 0.00 34 1019.6
20260503185836 82 176 2.0 6.0 0.00 0.00 0.00 34 1019.6
20260503184836 81 239 1.0 2.0 0.00 0.00 0.00 37 1019.6
20260503182824 80 242 2.0 4.0 0.00 0.00 0.00 37 1019.9
20260503181834 80 165 4.0 8.0 0.00 0.00 0.00 36 1019.9
20260503180835 80 248 2.0 4.0 0.00 0.00 0.00 41 1020.3
20260503175835 79 174 1.0 4.0 0.00 0.00 0.00 41 1020.3
20260503173834 79 168 2.0 4.0 0.00 0.00 0.00 42 1020.6
20260503172849 78 157 3.0 7.0 0.00 0.00 0.00 41 1020.9
20260503171840 78 235 2.0 5.0 0.00 0.00 0.00 43 1021.3
20260503170815 77 185 3.0 6.0 0.00 0.00 0.00 49 1021.3
20260503130846 59 113 1.0 3.0 0.00 0.00 0.00 77 1021.3
20260503080828 56 88 0.0 1.0 0.00 0.00 0.00 81 1019.9
20260503072812 57 68 0.0 1.0 0.00 0.00 0.00 78 1020.6
20260503071808 57 83 0.0 2.0 0.00 0.00 0.00 78 1020.6
20260503070808 57 70 0.0 1.0 0.00 0.00 0.00 77 1020.6
20260503054841 60 70 0.0 1.0 0.00 0.00 0.00 71 1020.6
20260503053823 60 85 0.0 1.0 0.00 0.00 0.00 69 1020.6
20260503052819 60 105 0.0 1.0 0.00 0.00 0.00 68 1020.6
20260503051831 60 134 0.0 2.0 0.00 0.00 0.00 68 1020.6
20260503050805 61 123 0.0 1.0 0.00 0.00 0.00 67 1020.6
20260503045843 61 131 0.0 2.0 0.00 0.00 0.00 66 1019.9
20260503044823 61 134 0.0 1.0 0.00 0.00 0.00 66 1020.3
20260503043810 62 127 0.0 1.0 0.00 0.00 0.00 66 1019.9
20260503042823 62 124 0.0 2.0 0.00 0.00 0.00 66 1020.3
20260503041809 62 100 0.0 1.0 0.00 0.00 0.00 67 1020.3
20260503040813 62 123 0.0 1.0 0.00 0.00 0.00 65 1020.3
20260503035825 63 114 0.0 1.0 0.00 0.00 0.00 65 1020.3
20260503034810 63 146 0.0 1.0 0.00 0.00 0.00 64 1020.3
20260503033824 64 136 0.0 1.0 0.00 0.00 0.00 63 1020.3
20260503032842 64 119 0.0 0.0 0.00 0.00 0.00 63 1020.3
20260503031818 64 112 0.0 1.0 0.00 0.00 0.00 63 1019.9
20260503025823 65 257 0.0 0.0 0.00 0.00 0.00 61 1019.9
20260503024839 66 170 0.0 1.0 0.00 0.00 0.00 60 1019.9
20260503023822 66 158 0.0 1.0 0.00 0.00 0.00 60 1019.6
20260503021827 67 152 0.0 0.0 0.00 0.00 0.00 59 1019.6
20260503020805 67 161 0.0 0.0 0.00 0.00 0.00 58 1019.6
20260503015847 68 103 0.0 0.0 0.00 0.00 0.00 58 1019.6
20260503014836 68 169 0.0 1.0 0.00 0.00 0.00 57 1019.2
20260503013838 69 204 0.0 0.0 0.00 0.00 0.00 55 1019.6
20260503012842 70 285 0.0 0.0 0.00 0.00 0.00 52 1019.2
20260503011822 70 148 0.0 1.0 0.00 0.00 0.00 50 1019.2
20260503010822 71 127 0.0 1.0 0.00 0.00 0.00 51 1019.2
20260503004842 72 132 0.0 1.0 0.00 0.00 0.00 47 1019.2
20260503003816 72 131 0.0 2.0 0.00 0.00 0.00 45 1018.9
20260503001829 73 49 0.0 0.0 0.00 0.00 0.00 44 1019.2
20260503000815 73 57 0.0 0.0 0.00 0.00 0.00 43 1019.2